GFSWCAN_925_rhum_234.txt.gz
RH
90 85 88 98 93 95 100 96 87 94 99 93 98 99 100 99 92 69 74 62 76 98 100 96 94 87 77 74 82 99 99 99 100 99 98 100 100 98 98 97 98 96 97 99 99 99 93 61 38 64 60 38 39 56
88 91 88 92 98 96 100 95 90 98 100 96 100 98 91 87 72 61 90 62 53 94 99 97 99 100 98 95 85 96 97 96 95 98 100 100 100 100 98 98 93 98 89 94 89 88 62 52 37 37 41 36 37 54
85 85 92 99 100 98 98 95 88 97 100 94 96 91 88 79 75 66 78 68 71 99 100 98 99 95 87 86 90 94 99 92 96 88 98 99 99 93 98 98 98 88 80 94 88 74 70 38 40 37 37 36 41 56
84 86 94 99 99 99 96 93 85 86 93 99 100 95 86 78 71 63 66 64 67 96 96 99 97 99 95 97 99 98 97 97 93 93 100 100 98 93 94 85 92 89 85 89 86 69 50 44 43 41 52 55 53 50
87 79 86 96 99 93 100 91 89 88 91 97 98 100 88 88 85 71 69 72 58 85 96 99 95 91 93 99 99 99 99 97 99 100 100 100 98 96 96 92 96 91 89 85 86 70 68 60 49 53 56 54 48 44
85 76 71 82 99 98 100 96 90 85 83 88 94 100 100 98 88 83 99 86 72 64 96 98 97 97 91 99 98 97 96 98 99 100 100 100 93 91 98 98 74 71 72 64 67 60 52 54 53 50 50 49 43 41
76 87 64 71 85 100 100 94 96 86 86 87 91 87 99 98 90 97 97 94 81 78 98 98 97 99 93 93 99 100 97 100 98 100 100 99 96 93 98 98 69 68 64 64 54 54 57 50 54 49 46 44 44 40
70 73 68 62 80 94 100 98 85 87 97 93 100 98 100 97 95 96 100 96 82 96 96 97 96 96 98 99 100 100 100 100 99 100 99 99 99 100 98 80 55 46 59 59 54 45 50 48 48 46 43 41 43 44
68 67 64 63 80 85 95 99 100 96 99 100 100 97 93 95 100 99 96 87 82 90 97 97 96 96 98 100 100 99 100 98 100 98 98 98 98 97 83 72 65 51 67 65 52 48 47 52 49 46 42 42 45 47
69 70 63 62 74 74 85 94 94 96 96 94 91 98 99 100 99 94 95 98 99 99 98 97 90 99 97 97 99 96 98 97 97 96 100 98 94 74 55 50 44 45 60 50 64 62 57 54 51 47 42 42 46 48
74 69 69 60 65 67 79 83 90 89 73 85 100 100 99 97 88 94 99 96 94 99 98 96 91 98 98 94 98 93 97 96 96 85 95 94 92 71 52 51 46 56 54 47 45 49 48 54 55 52 51 57 55 54
77 61 69 55 55 62 68 72 70 90 90 86 92 99 97 86 96 90 98 98 98 94 99 98 99 91 99 96 96 99 96 95 90 83 86 87 83 57 52 48 58 58 55 53 47 55 61 56 53 54 58 58 55 55
74 59 66 55 50 60 66 57 66 70 75 67 82 86 86 92 96 87 100 98 98 100 98 99 98 99 100 99 98 97 96 96 79 89 86 90 76 57 49 53 55 59 64 64 61 61 63 66 63 58 62 59 57 59
72 59 66 62 48 58 58 50 63 79 65 74 82 91 84 93 89 78 79 93 94 96 97 96 99 98 99 98 96 96 96 84 94 96 81 84 65 60 50 52 54 66 72 75 74 70 71 69 74 70 64 57 59 73
70 59 62 47 50 55 52 50 65 64 67 77 75 90 97 92 93 94 94 94 90 86 94 98 98 97 98 97 96 88 97 97 92 87 88 83 68 56 56 61 65 75 81 81 78 80 82 78 78 87 74 61 59 70
70 61 70 40 58 54 49 61 61 55 74 79 76 91 96 89 98 98 95 98 100 98 89 89 97 97 97 96 82 83 86 87 84 91 88 76 64 61 65 70 78 79 80 85 86 85 87 83 85 98 99 95 95 98
72 76 60 56 60 53 45 40 52 74 88 76 95 97 94 95 97 98 94 99 98 88 93 83 83 73 88 89 75 83 87 88 95 93 92 76 67 75 79 83 87 84 86 88 91 93 97 98 100 98 98 100 100 100
72 72 49 69 58 50 55 58 76 86 92 96 97 98 100 99 99 99 99 92 84 77 74 70 81 75 85 69 87 95 96 98 97 97 99 92 86 85 79 90 91 89 91 95 95 97 98 94 95 98 97 100 100 98
71 45 70 68 54 53 72 76 78 97 99 98 99 98 97 99 96 91 87 79 79 78 81 82 79 86 92 96 97 93 91 97 96 98 97 96 92 91 91 90 90 94 98 97 95 94 89 84 94 100 100 92 96 94
56 71 69 65 53 69 69 80 75 85 94 98 99 99 97 97 95 89 90 82 75 86 87 91 95 96 97 98 98 98 98 93 90 96 98 98 92 87 86 84 88 86 89 91 94 93 95 98 92 89 83 77 85 88
58 67 60 54 61 74 85 90 86 90 91 97 97 92 96 84 91 90 87 80 84 96 90 96 98 97 98 98 95 93 94 93 93 82 90 96 97 88 90 90 87 86 90 95 96 99 92 94 89 82 75 73 71 69
68 63 58 57 80 75 84 88 82 82 90 94 86 82 89 90 93 92 84 84 93 90 96 96 97 98 95 96 96 94 90 85 84 86 87 88 89 89 93 94 88 94 96 95 92 94 86 87 84 82 77 76 71 70
71 66 80 74 80 82 89 83 76 78 91 92 86 85 93 91 93 80 92 93 92 96 97 96 97 95 94 94 88 90 82 80 87 88 88 93 94 92 92 87 81 92 96 92 79 78 80 80 81 81 81 82 84 84
62 85 93 94 86 99 83 94 85 90 90 86 87 92 89 94 81 88 87 94 92 97 93 96 95 97 90 85 95 97 97 90 95 96 92 90 95 100 91 91 84 81 76 83 83 88 93 92 89 88 84 82 87 85
64 75 90 99 90 90 94 93 89 86 97 91 93 97 95 84 91 91 80 84 97 97 99 98 96 93 94 99 100 100 87 87 93 99 99 92 99 97 99 95 90 84 80 78 90 86 88 83 81 81 82 84 86 83
76 78 79 91 96 87 89 94 93 93 91 91 95 98 90 92 84 83 85 96 98 98 100 94 95 98 100 99 99 98 98 84 83 97 100 90 86 89 94 92 95 90 69 65 72 84 88 88 85 75 74 86 89 92
90 91 93 78 77 77 93 90 78 86 91 97 97 94 89 92 90 91 93 98 91 96 92 84 89 95 98 100 100 99 88 80 85 99 99 92 88 81 74 90 96 95 82 77 75 73 69 72 81 86 90 93 95 95
88 88 96 96 93 86 94 95 90 86 91 90 83 85 82 84 97 97 98 98 100 100 100 100 100 100 100 100 99 98 99 94 92 91 88 92 96 97 94 88 74 64 63 64 66 68 71 78 87 90 90 94 99 100
97 90 80 94 91 92 90 89 88 88 87 83 92 100 92 92 94 95 97 99 98 95 96 99 100 100 100 99 97 94 87 85 89 93 94 95 98 99 85 80 81 80 77 74 80 78 79 79 83 88 92 93 94 91
91 89 91 93 88 86 89 92 93 98 97 97 93 85 89 93 96 98 99 99 93 98 100 100 98 92 98 94 97 97 97 97 96 91 94 95 95 99 90 85 82 76 70 61 60 67 79 82 84 85 85 83 82 81
90 90 91 95 99 99 100 98 98 95 97 95 93 93 97 97 96 97 98 100 100 99 96 97 97 96 94 94 94 95 99 96 86 80 80 92 96 96 87 71 59 55 58 65 73 79 81 84 87 85 84 88 92 96
92 92 98 100 96 98 95 94 97 96 98 92 97 97 96 95 97 96 96 97 98 96 97 95 95 97 96 91 83 83 87 93 91 90 89 89 77 62 57 60 66 67 67 70 75 78 82 84 87 92 95 96 98 100
94 96 96 94 96 96 97 91 96 96 96 96 96 96 99 96 96 96 96 96 96 96 97 97 98 97 93 90 91 94 90 84 72 62 56 55 57 66 72 71 66 65 67 72 79 78 82 87 95 97 97 98 98 100

GFSWCAN_925_rhum_237.txt.gz
RH
90 90 85 92 98 99 99 97 98 93 82 94 100 93 93 91 98 96 97 95 80 99 99 84 69 71 68 70 82 84 85 95 98 97 99 98 99 93 96 96 98 95 98 100 100 99 90 54 53 64 58 42 41 56
93 87 83 91 97 95 94 100 97 84 99 92 94 84 79 85 100 86 96 91 70 92 100 99 98 89 57 52 66 94 77 85 80 91 100 99 100 99 88 90 93 98 86 95 88 82 64 52 48 45 44 41 40 58
93 87 80 79 93 98 96 100 94 88 100 97 97 100 100 98 85 71 84 90 87 99 99 95 98 98 84 76 69 80 95 84 97 94 96 99 100 91 96 92 97 90 79 94 85 72 70 50 42 38 37 38 40 53
94 88 76 72 86 95 100 98 90 91 100 97 89 94 94 87 73 64 69 69 67 94 98 99 98 94 88 92 74 75 84 94 89 96 99 100 100 94 88 81 88 82 83 89 86 73 55 52 44 42 39 44 48 46
94 91 75 72 79 93 99 100 94 93 96 92 93 87 82 78 71 65 69 64 50 82 95 99 92 90 97 100 99 96 94 90 98 97 100 100 96 97 97 90 96 84 84 86 87 72 65 60 55 45 50 51 48 43
94 94 80 76 80 92 100 100 96 90 92 99 96 97 88 84 84 85 98 75 61 57 94 96 90 91 90 95 93 97 92 96 98 100 98 98 93 91 98 97 74 74 69 71 78 65 60 55 53 46 49 52 45 42
94 94 86 84 82 89 100 100 96 90 95 99 100 99 88 86 70 97 96 87 66 54 98 96 97 95 92 93 98 99 98 100 100 100 100 100 99 93 97 86 67 69 64 64 57 55 54 47 48 48 49 46 44 42
93 88 77 90 76 70 96 100 100 96 93 89 98 100 100 97 90 96 99 94 67 93 96 97 94 100 98 100 100 100 100 100 100 100 100 100 100 100 99 78 60 61 64 62 55 48 51 48 49 46 43 42 46 48
88 77 74 86 73 85 77 98 98 99 100 99 99 93 95 95 99 99 100 94 89 92 96 91 91 94 99 100 100 99 100 97 99 97 96 100 97 97 79 76 62 60 67 66 54 49 47 51 48 46 44 45 51 51
88 74 70 82 68 86 83 88 98 98 98 99 94 98 100 99 99 97 95 99 100 100 94 89 87 94 94 94 95 92 95 95 95 92 100 97 89 75 63 61 62 54 62 57 66 63 60 56 53 48 45 46 50 51
93 81 65 79 61 77 76 70 88 93 94 99 100 100 100 99 96 99 98 97 96 97 89 93 82 93 96 89 91 89 92 92 94 91 94 90 85 73 59 57 49 51 58 52 49 48 46 55 56 51 48 50 52 54
95 80 62 72 55 68 74 72 68 82 88 90 95 99 99 94 87 88 97 91 90 88 94 95 96 91 99 90 90 95 90 90 86 79 87 78 72 53 52 52 50 58 55 52 51 55 57 54 51 52 61 60 56 62
93 75 60 68 53 65 77 72 74 73 79 74 79 92 94 87 83 86 100 90 96 87 92 95 98 99 98 94 95 93 94 92 72 82 76 77 66 55 49 55 60 58 59 61 61 60 60 63 64 61 60 59 59 64
94 75 60 64 46 66 67 65 75 78 65 69 81 82 80 88 80 74 73 82 87 90 83 90 98 95 95 93 90 92 90 78 92 91 74 63 58 55 54 59 61 65 67 71 70 64 68 68 68 70 66 63 65 74
96 75 59 56 43 67 58 58 64 68 67 76 72 89 98 93 91 92 92 87 90 80 88 94 94 91 95 95 95 89 96 90 85 83 75 73 64 58 63 68 71 75 80 75 72 78 80 76 75 82 75 65 66 70
96 72 65 50 59 68 76 64 65 58 74 77 82 91 94 90 97 97 97 99 98 97 96 97 94 95 93 94 93 90 87 83 75 79 80 71 57 62 69 75 76 79 81 86 85 83 82 79 82 91 88 83 82 78
94 71 70 48 71 62 62 44 58 76 86 82 94 95 94 92 95 96 94 99 100 94 94 93 92 87 90 91 74 74 85 79 94 91 88 68 65 71 76 78 85 81 80 82 86 88 94 92 89 89 97 99 100 100
71 73 53 65 71 56 55 61 76 83 93 95 95 97 94 96 96 98 99 98 88 84 76 71 75 79 80 65 75 87 96 97 94 96 92 78 74 76 75 81 82 81 86 93 92 90 89 88 93 96 98 100 100 100
63 61 60 69 63 54 70 75 77 95 95 96 97 94 96 97 97 94 88 81 79 76 78 76 72 79 83 88 92 94 93 89 95 97 96 92 86 88 90 88 87 87 91 88 82 86 90 95 95 98 95 86 89 94
66 77 71 69 58 68 71 80 76 86 94 96 94 94 94 96 95 86 82 78 74 79 89 92 95 95 97 97 92 88 90 88 89 94 96 95 88 86 86 85 88 84 84 84 88 87 89 94 95 91 88 86 86 86
72 72 63 57 62 73 82 86 89 93 94 94 96 88 96 95 82 85 81 76 81 88 91 95 98 98 96 94 90 88 88 84 86 82 90 96 90 85 85 84 81 79 82 83 85 89 84 87 92 86 83 83 75 76
72 64 56 55 78 76 84 85 83 86 93 96 88 80 86 86 85 86 80 81 85 88 92 90 94 93 90 90 91 88 85 82 81 81 80 77 81 82 83 81 77 86 86 86 82 88 91 94 87 80 80 81 76 78
64 60 71 72 80 83 93 83 75 81 95 96 82 82 89 87 87 76 89 86 86 91 91 94 94 90 91 89 82 84 73 70 77 80 81 85 85 84 82 85 82 87 90 91 88 91 98 94 85 84 84 84 86 89
58 85 93 90 84 100 82 93 84 90 82 82 87 94 90 87 76 80 82 82 85 87 89 93 84 84 83 80 88 90 91 82 85 89 85 82 88 94 89 90 91 92 90 94 94 97 96 94 90 90 88 89 91 95
62 76 87 99 87 92 96 94 89 87 98 92 94 96 93 79 86 84 76 77 88 92 95 89 86 83 94 97 98 95 89 81 86 96 99 92 94 90 90 91 94 97 87 87 97 98 97 87 83 85 88 92 90 90
76 81 81 92 96 88 90 93 94 95 90 97 98 95 82 84 82 85 87 96 97 97 97 89 90 96 97 97 95 92 99 93 91 95 100 94 87 86 89 88 85 85 77 74 80 92 94 89 85 78 85 88 88 94
82 96 93 77 74 76 92 85 75 84 94 99 98 91 82 90 96 93 95 95 93 92 98 94 89 93 96 99 100 100 95 91 98 99 100 99 91 86 81 89 92 96 78 74 76 76 71 72 79 86 94 97 98 99
82 89 98 97 93 83 92 91 86 83 88 85 77 84 84 89 95 94 95 98 100 100 100 100 100 100 100 100 100 100 100 100 99 97 95 97 97 93 86 78 69 62 60 59 59 61 65 72 78 85 92 99 100 97
97 88 81 96 94 90 90 87 85 84 82 80 93 91 93 90 93 94 96 100 100 99 97 97 100 100 100 100 98 96 92 87 84 91 93 94 92 98 84 77 75 69 64 64 69 63 64 68 77 83 88 89 88 83
89 87 89 93 89 93 99 97 98 100 96 94 88 85 88 92 96 97 98 97 97 98 98 98 99 91 95 94 97 99 97 96 96 90 92 93 94 97 85 77 68 63 56 54 64 80 82 80 80 78 77 78 82 87
89 88 96 93 96 97 95 98 88 86 93 88 90 85 92 94 96 97 97 98 99 98 95 95 95 97 94 95 92 94 97 97 91 83 80 88 92 85 67 55 53 55 57 61 65 70 74 77 80 83 88 92 93 96
91 94 98 96 96 96 94 95 96 92 94 90 96 96 94 93 96 95 95 97 97 95 96 94 92 97 97 91 85 82 84 94 90 89 88 84 67 57 56 59 61 60 62 68 73 76 77 80 86 90 95 97 99 99
95 95 95 96 96 96 93 91 95 95 95 95 95 96 97 93 97 95 96 96 97 98 100 100 99 97 93 89 89 93 90 87 77 63 53 52 54 59 61 63 64 66 66 70 74 77 80 83 90 94 95 98 99 100

GFSWCAN_925_rhum_243.txt.gz
RH
99 99 97 87 81 76 70 71 70 82 96 99 100 94 91 92 92 99 95 99 96 97 82 64 54 62 56 58 73 69 70 76 76 98 89 85 82 75 52 40 44 56 69 79 82 89 88 32 36 66 32 26 28 35
98 99 99 87 78 76 67 71 81 91 100 99 93 90 90 90 94 100 96 98 100 98 97 77 57 52 44 48 55 66 64 54 56 71 78 64 75 61 60 70 33 63 52 63 64 52 37 39 41 42 40 33 36 37
98 98 98 90 78 72 68 74 84 94 98 99 96 96 94 85 86 100 97 99 97 100 98 86 81 60 54 46 51 75 81 52 58 39 59 68 78 49 74 65 47 38 42 82 90 74 57 42 38 38 40 39 33 37
97 100 99 93 78 71 65 75 85 90 99 98 99 93 77 88 94 97 97 97 88 96 100 98 82 56 54 53 50 61 60 53 54 67 80 78 80 42 53 40 46 42 46 55 68 67 67 44 50 42 35 38 36 32
96 100 98 97 82 72 64 77 82 88 99 100 99 89 92 100 100 95 97 99 84 86 100 100 70 63 67 68 58 57 69 70 80 91 98 96 71 65 56 53 63 44 47 60 60 50 66 60 42 38 42 38 36 39
93 100 99 99 89 70 68 83 82 89 100 100 90 88 99 98 92 94 99 100 93 87 80 100 88 81 70 68 70 80 71 67 85 89 86 71 53 71 80 63 43 33 31 34 38 36 48 61 53 42 40 37 48 52
88 99 99 99 92 70 74 82 84 90 99 100 93 87 91 92 86 89 87 74 84 80 82 100 92 89 82 84 94 95 86 94 93 100 100 81 66 68 82 82 44 35 27 25 55 80 84 74 53 51 56 62 62 57
84 98 98 99 95 75 76 82 88 98 99 100 98 96 99 97 89 92 97 77 75 72 62 97 98 90 77 100 100 98 100 100 100 100 98 89 71 77 90 50 43 40 36 36 44 51 72 78 48 41 39 43 42 40
81 96 98 100 94 72 73 80 91 97 100 100 100 100 94 92 99 98 88 78 74 64 84 75 75 91 82 94 97 99 100 100 97 100 83 85 94 96 60 46 44 42 41 39 38 52 69 85 67 58 55 52 55 47
80 97 97 99 91 72 74 78 90 97 98 100 94 98 100 99 100 90 81 90 96 98 71 69 52 93 81 91 98 97 98 98 99 78 84 100 66 44 37 36 40 46 43 50 66 82 78 73 64 48 45 44 47 48
80 97 97 99 96 80 77 76 92 97 98 98 100 100 100 98 97 98 100 100 99 99 76 52 51 80 70 80 87 63 92 84 90 77 88 77 59 45 39 38 36 45 48 52 53 67 73 72 62 50 50 43 39 41
78 98 96 99 97 86 70 72 93 93 99 98 98 99 100 99 100 99 98 94 86 68 75 72 76 76 82 70 81 82 87 80 78 69 90 74 53 40 33 34 40 47 49 54 59 64 63 70 69 60 47 45 43 45
81 98 96 99 98 81 65 86 80 92 98 100 98 100 100 93 97 95 93 86 80 67 82 90 97 91 91 83 85 81 86 82 49 77 61 60 41 35 36 42 48 40 49 50 50 49 47 46 43 47 45 44 55 66
92 98 97 99 97 74 87 86 94 98 97 94 98 97 96 96 70 50 50 57 68 65 69 77 94 88 78 90 77 88 68 62 84 86 70 62 47 40 41 52 50 64 49 57 51 49 48 58 69 79 85 82 83 90
98 96 98 97 86 70 98 97 91 98 66 78 71 92 80 65 66 71 63 61 57 59 62 75 75 71 83 94 70 66 87 80 68 75 83 58 43 42 54 57 72 68 79 72 78 96 95 88 83 82 82 82 89 94
97 95 90 80 68 51 66 76 90 79 50 53 50 68 71 73 86 80 81 84 64 62 57 58 70 88 84 76 86 78 74 71 85 73 67 50 48 55 69 76 76 94 99 98 98 95 97 96 97 95 94 93 92 90
97 97 67 60 57 86 64 72 65 56 60 52 74 64 65 67 80 77 68 74 65 68 83 60 84 65 61 73 71 62 77 75 71 72 62 56 59 74 100 100 100 96 89 95 98 92 96 91 87 86 95 95 96 99
97 88 71 64 78 86 60 56 52 54 57 62 87 78 70 67 72 77 76 66 70 69 56 69 50 64 75 62 60 65 69 80 74 69 71 66 66 82 77 75 77 82 86 90 88 84 82 85 86 88 91 91 92 91
97 99 99 76 77 72 55 50 53 58 68 71 71 71 76 82 75 69 68 68 74 53 59 65 64 61 57 64 68 68 74 70 76 84 81 79 80 89 80 74 70 69 69 67 70 72 71 71 73 70 69 71 79 78
98 99 84 78 72 44 48 57 55 54 79 72 68 76 81 70 63 70 63 58 55 56 77 72 79 90 90 86 85 78 77 68 72 80 84 77 71 71 69 71 72 68 68 67 67 67 69 72 71 72 74 75 79 80
98 74 84 65 51 44 48 55 57 65 67 78 79 68 80 62 61 59 55 50 74 83 82 87 87 90 89 86 75 67 66 59 62 66 78 86 72 66 67 67 66 66 70 73 77 78 78 81 83 87 91 96 91 85
73 72 58 53 47 48 52 50 54 62 73 77 75 66 82 80 71 65 55 76 80 90 89 84 90 83 82 77 75 73 71 72 74 78 74 70 75 73 73 70 69 78 77 78 74 81 77 78 84 88 92 88 82 81
69 54 44 45 72 71 80 56 68 61 77 79 68 75 65 59 53 46 76 77 87 96 86 77 75 74 73 71 63 62 60 59 66 69 68 68 66 67 67 68 69 76 77 71 72 77 82 83 88 89 87 84 84 84
56 68 87 74 61 84 66 75 56 61 74 71 86 88 68 54 44 55 76 82 94 97 89 85 74 80 71 67 72 73 70 63 63 62 64 65 68 68 65 65 64 63 65 70 77 83 87 89 87 85 83 81 85 88
58 78 80 88 72 80 78 85 80 65 81 66 72 74 70 48 59 67 70 88 96 94 97 98 95 76 81 82 74 71 66 63 67 72 67 64 64 65 66 67 70 73 77 88 87 88 89 86 86 84 83 79 76 74
65 86 74 72 77 68 63 77 76 72 66 76 73 57 54 62 66 74 71 92 89 88 96 88 80 81 80 70 73 72 68 63 62 73 77 64 64 69 76 81 83 93 92 88 85 83 83 83 80 77 78 76 80 73
70 79 58 47 46 48 65 59 48 62 75 76 69 75 66 67 72 77 89 82 83 88 82 69 64 71 85 88 88 86 76 74 75 80 82 84 89 83 80 82 84 92 92 88 85 80 77 78 78 79 82 85 88 88
65 62 79 66 61 51 66 60 67 72 64 49 55 70 68 68 81 89 85 88 86 87 86 80 74 78 84 90 92 92 93 95 95 90 88 87 88 93 97 99 91 88 98 95 89 85 80 80 80 82 85 88 93 94
72 54 64 81 70 75 73 72 66 60 50 55 76 74 77 78 87 88 90 91 90 86 87 89 97 95 94 93 93 95 93 86 85 85 88 92 89 90 90 90 91 91 92 90 86 95 96 95 93 92 92 93 96 96
73 55 73 79 78 83 87 87 83 78 60 63 64 67 72 83 92 99 99 95 90 90 91 93 95 93 93 91 94 98 100 98 91 80 84 87 88 93 93 90 90 92 93 93 94 97 98 95 94 92 90 90 89 89
64 70 74 71 82 91 90 89 87 86 86 84 82 80 77 86 92 98 97 98 98 96 93 95 96 94 91 90 88 91 94 100 100 98 95 95 96 93 92 93 93 94 93 92 92 90 90 89 88 87 86 88 90 89
82 76 69 75 88 94 96 85 82 88 85 83 85 81 83 79 87 91 97 98 96 90 92 92 91 96 100 100 100 100 99 100 100 99 97 95 92 94 95 97 99 97 96 94 92 90 88 88 87 87 89 90 91 93
86 84 80 75 82 87 80 75 71 87 89 86 88 87 90 81 88 89 98 100 97 93 94 98 100 100 100 100 100 100 100 100 98 91 84 86 95 98 99 100 99 97 95 93 91 90 88 88 90 91 92 94 95 97

GFSWCAN_925_rhum_246.txt.gz
RH
86 96 96 97 99 90 78 76 77 67 64 68 89 96 100 100 100 100 96 95 97 96 88 69 65 76 64 66 88 69 71 72 79 95 90 81 87 68 58 44 49 59 59 68 89 92 87 26 24 43 38 39 37 50
82 90 99 97 98 95 83 76 70 62 66 81 93 96 100 98 100 100 97 100 100 97 90 74 69 55 52 50 59 64 71 62 80 93 96 72 76 64 54 67 37 60 50 64 56 56 38 31 40 44 48 52 58 65
76 86 96 98 98 97 87 78 64 63 73 85 94 99 100 95 96 100 99 96 100 99 100 99 94 74 65 58 52 84 88 67 77 68 74 75 83 54 75 67 54 40 35 63 78 52 40 37 33 36 41 43 46 80
71 82 92 99 99 98 91 76 66 68 78 80 96 99 97 94 90 93 99 96 97 99 99 98 78 76 70 68 63 70 85 72 75 80 96 100 98 53 59 46 47 42 39 45 48 46 39 38 38 41 47 64 65 66
70 79 87 97 99 98 95 78 69 70 82 82 91 100 90 90 94 100 100 99 93 91 100 96 74 67 61 66 69 74 80 84 92 96 100 98 84 94 83 62 65 42 45 58 62 46 47 42 35 36 68 58 53 56
69 77 82 94 99 99 97 83 71 72 89 92 93 100 100 98 98 90 99 100 99 86 97 100 93 80 67 66 66 67 76 85 94 100 100 87 59 83 99 68 44 35 33 33 37 32 36 37 35 33 42 51 57 49
68 75 78 89 99 100 98 84 70 78 89 95 100 99 96 96 93 95 92 81 89 89 100 100 92 94 78 80 96 91 75 92 97 100 99 85 72 80 76 76 47 35 32 32 30 31 36 34 44 61 68 72 79 52
66 72 74 86 99 100 98 82 69 85 92 97 100 96 98 94 89 97 88 86 90 96 82 96 98 97 89 99 100 97 99 99 100 99 98 82 74 86 92 46 41 35 30 30 33 34 39 38 40 55 64 80 86 66
62 70 75 86 100 100 99 79 72 88 96 99 100 100 99 96 99 90 85 88 90 92 87 81 75 95 84 98 99 99 100 99 92 96 81 73 72 85 49 39 37 35 37 38 36 36 37 39 41 51 75 87 79 54
68 72 76 87 100 100 99 82 74 90 98 98 98 96 100 99 96 86 84 92 94 93 76 74 71 94 85 91 87 94 94 89 99 80 68 96 71 49 42 38 37 37 36 36 50 58 49 46 46 58 73 77 78 74
69 73 75 84 100 100 100 88 76 92 99 98 100 100 100 100 95 99 100 100 99 96 71 57 60 82 72 77 79 73 94 74 91 65 87 73 60 48 54 61 41 38 37 41 47 56 71 74 67 79 81 76 69 64
68 70 73 83 100 100 100 89 78 98 97 98 99 100 99 99 100 100 100 86 81 62 62 67 81 74 76 66 78 78 79 74 72 70 91 69 52 41 36 34 39 46 46 48 54 72 77 74 76 79 80 64 58 72
71 69 75 88 100 100 99 82 78 93 100 99 99 100 100 100 98 96 90 78 81 80 78 93 98 93 85 82 94 94 91 76 47 77 59 56 50 40 36 41 51 45 63 58 53 63 89 94 95 93 85 82 80 89
67 69 80 92 100 100 97 89 93 98 99 100 100 99 97 95 86 80 65 55 67 72 74 82 99 97 87 95 83 90 70 59 72 74 59 70 51 41 45 65 73 82 82 85 69 74 86 89 94 93 93 92 92 93
65 78 85 93 97 98 97 100 100 97 97 100 99 96 90 78 81 68 59 61 57 58 72 83 85 73 83 97 70 65 85 74 67 70 81 66 50 48 68 73 86 96 98 98 92 94 98 97 98 99 99 95 91 91
76 89 79 65 71 91 98 100 99 99 90 95 77 76 71 81 93 85 75 78 59 67 63 64 74 89 81 70 75 76 65 66 90 74 66 54 74 92 96 97 100 100 100 100 100 100 98 96 96 95 94 94 93 91
91 97 99 96 84 75 82 96 94 90 66 80 68 62 67 73 84 85 72 73 61 74 92 62 79 67 58 64 69 57 77 88 70 75 73 82 97 100 100 100 100 98 98 99 98 98 98 98 98 93 97 96 95 97
98 96 97 100 91 91 90 98 88 79 93 76 75 74 67 68 77 80 75 69 66 68 60 64 56 60 68 58 60 85 82 76 83 81 82 93 100 100 100 100 100 98 98 99 99 99 98 93 90 92 89 87 85 88
97 99 98 100 100 100 73 55 54 71 69 71 76 72 71 79 70 68 72 72 63 59 57 58 68 64 73 75 77 76 70 79 82 84 87 96 99 99 99 92 80 87 97 96 88 90 87 76 78 78 81 85 90 90
97 99 99 100 99 93 52 51 49 54 66 70 78 73 74 70 71 77 70 67 63 60 77 79 81 87 83 81 83 83 80 81 89 90 88 85 82 80 78 76 75 72 74 76 79 80 84 89 89 87 88 88 89 91
98 87 70 96 95 71 44 53 56 61 62 70 69 70 69 65 66 69 62 54 81 96 90 84 88 91 90 85 79 66 82 96 79 79 86 89 82 76 77 75 74 75 79 82 86 88 89 92 92 92 93 95 94 92
97 74 66 68 51 44 51 46 51 60 65 67 72 63 78 85 79 60 57 77 85 92 93 91 94 90 87 85 85 80 78 76 74 74 72 75 83 83 84 79 78 84 84 84 82 86 86 87 90 90 90 89 86 86
93 75 54 46 71 71 72 54 58 56 80 76 64 68 67 65 57 48 72 77 88 97 88 86 78 74 77 78 73 74 70 70 75 76 76 76 75 74 76 77 76 81 83 80 81 84 88 87 87 86 86 89 92 93
92 73 91 74 58 76 65 72 52 55 62 67 65 66 63 58 50 58 72 78 99 94 83 82 76 79 76 73 79 77 72 69 72 73 71 72 76 75 71 75 78 80 81 83 84 86 88 88 85 88 86 86 85 84
65 77 82 87 70 80 76 72 60 56 79 72 72 71 69 49 62 62 70 88 92 99 98 98 99 80 90 96 97 96 76 69 72 75 71 68 73 81 87 93 91 90 88 87 86 90 95 93 90 88 85 80 80 81
66 79 73 68 72 60 58 69 69 70 62 82 90 58 51 62 68 74 80 91 97 100 100 98 97 98 94 79 84 83 82 78 80 87 87 70 72 77 80 82 85 96 89 85 83 82 86 86 86 83 81 82 81 81
73 74 53 40 42 43 53 54 45 56 70 72 67 70 65 66 73 86 96 92 95 100 99 92 80 82 86 86 84 82 80 79 82 86 88 91 88 84 84 88 92 96 89 86 84 82 83 85 86 87 90 92 93 92
60 56 76 64 59 46 67 61 66 67 60 50 55 66 64 73 84 91 91 97 96 89 89 83 82 85 89 91 92 93 95 93 90 88 88 89 91 90 92 94 95 93 94 94 90 88 87 88 89 90 91 93 95 92
64 51 60 82 75 78 78 76 66 61 46 55 72 73 79 81 92 88 94 93 89 87 90 94 97 94 94 91 91 94 92 85 80 88 90 93 91 94 94 93 92 82 74 77 87 91 93 94 92 92 93 94 96 97
69 53 70 75 78 80 84 85 86 86 65 66 64 70 76 84 94 99 98 92 89 92 92 93 94 90 87 89 96 99 100 95 80 81 88 90 92 94 93 94 95 95 95 94 96 97 92 91 91 92 93 93 93 93
58 67 69 66 84 92 93 92 93 89 82 80 79 81 81 88 93 97 98 99 95 92 91 94 95 91 88 88 88 92 96 99 95 88 91 93 94 93 94 94 94 94 94 94 93 92 91 90 90 89 90 91 93 95
82 72 71 76 88 95 97 84 76 87 85 86 91 86 84 77 87 92 97 98 98 94 94 90 90 97 100 100 98 95 98 98 99 98 98 97 96 96 96 97 97 97 96 94 91 90 90 90 90 90 91 92 95 97
87 80 76 75 77 86 90 90 78 89 90 91 93 93 90 78 88 91 98 99 98 97 97 99 100 100 100 100 100 100 100 99 99 96 93 94 95 96 99 99 97 95 95 94 93 91 91 91 92 92 94 96 98 100

GFSWCAN_925_rhum_252.txt.gz
RH
77 77 86 89 98 97 99 96 92 87 83 82 78 70 64 57 57 82 83 80 95 96 88 79 72 77 74 79 87 77 83 82 95 93 93 91 99 91 95 80 72 75 86 97 93 90 88 41 52 64 44 35 40 55
83 79 74 87 84 99 98 98 98 94 80 74 72 67 61 57 66 78 98 93 99 95 98 91 85 73 66 64 66 79 74 75 88 99 96 97 96 94 77 80 50 74 60 59 70 72 49 44 44 49 48 52 56 51
73 74 76 78 86 93 98 98 97 96 92 80 74 66 70 69 66 92 100 99 100 98 96 98 93 80 74 72 65 93 82 69 74 83 86 93 96 99 89 89 64 62 50 68 61 49 44 43 39 36 34 42 42 46
63 66 62 69 75 85 91 95 95 96 87 89 82 68 62 59 80 95 100 98 100 99 99 89 83 90 74 74 75 72 77 70 76 83 99 99 95 90 84 69 77 67 62 64 64 52 46 43 41 38 37 36 37 40
60 60 62 62 71 81 85 92 94 94 87 94 91 80 63 67 84 91 100 100 100 97 100 98 90 80 73 83 81 78 77 83 94 98 99 97 96 96 92 85 89 61 64 72 65 52 59 48 49 51 50 47 43 52
58 57 75 67 70 72 85 87 94 91 84 97 90 69 62 77 89 100 99 96 100 100 100 99 89 92 84 86 89 88 85 86 96 100 99 98 89 96 97 84 59 54 52 52 58 48 51 48 44 43 48 48 53 53
61 63 71 66 62 72 83 91 88 88 89 96 85 64 73 88 98 98 96 96 99 100 99 100 99 90 88 87 95 95 88 98 98 100 99 99 99 98 100 96 62 53 48 53 51 51 58 51 52 43 43 42 49 49
64 60 64 73 66 65 80 89 94 96 94 96 77 73 88 88 98 99 93 89 99 95 96 100 96 93 88 100 100 99 100 100 100 100 100 99 98 99 98 70 58 50 53 52 50 48 52 45 43 44 42 43 46 53
66 59 62 65 68 60 76 85 93 98 100 96 79 89 96 100 100 95 89 99 96 92 99 100 96 94 94 100 99 99 98 99 99 93 98 98 98 98 85 79 66 58 54 49 50 53 51 54 52 48 48 49 54 53
64 59 64 63 65 66 79 85 89 99 100 92 95 100 100 98 98 100 98 100 100 100 100 99 88 97 95 98 98 94 99 96 99 94 86 96 92 71 62 56 53 60 75 72 79 79 74 75 68 67 63 54 52 58
60 58 60 59 63 66 82 82 90 99 87 99 100 99 99 99 100 100 100 99 100 99 97 95 91 97 89 96 99 90 93 92 95 88 92 88 94 78 58 59 63 68 81 87 86 84 82 81 79 76 79 83 85 86
55 58 60 62 60 71 78 80 94 100 90 100 100 100 100 100 100 99 98 99 99 92 95 95 94 93 95 89 93 98 97 98 91 94 99 95 87 69 69 74 79 85 87 81 81 90 92 95 90 92 95 98 97 97
64 58 59 64 59 73 73 81 97 100 100 98 99 99 100 99 98 98 98 95 98 97 99 99 98 96 94 96 96 98 98 95 78 99 94 93 81 87 86 84 86 78 88 96 96 96 95 97 95 97 99 100 98 98
67 73 68 60 60 66 72 77 96 94 99 100 99 98 98 97 95 94 88 87 86 95 96 93 100 95 99 99 94 99 93 84 95 94 85 92 81 81 85 79 82 93 90 99 99 100 100 98 98 98 98 99 97 97
62 61 64 63 63 63 67 84 92 97 99 99 100 98 98 87 92 90 86 85 88 88 87 94 97 95 99 98 98 91 96 91 90 91 96 91 83 80 82 83 92 96 98 98 97 98 98 97 96 97 98 99 98 98
65 61 61 63 62 68 73 97 98 99 100 100 100 99 99 99 98 98 95 95 87 88 86 87 99 98 98 97 98 91 87 88 92 92 92 85 83 90 87 95 96 98 98 98 98 98 97 97 97 98 97 98 98 97
62 65 65 71 74 98 99 100 99 100 99 100 98 99 99 99 98 98 87 90 86 87 98 95 98 88 88 98 94 92 95 99 98 97 90 89 90 89 96 97 97 95 96 98 98 97 97 98 89 87 94 97 96 98
70 78 77 69 91 98 100 99 100 100 99 98 99 93 92 97 97 98 95 85 84 89 83 79 79 86 91 81 96 98 98 99 96 93 93 94 94 90 96 93 96 97 98 98 98 98 98 91 92 94 93 93 94 94
72 74 69 76 96 98 98 99 99 97 93 93 95 96 96 97 96 89 88 83 80 80 85 83 82 95 96 99 99 95 96 89 95 99 98 97 97 96 98 98 97 98 98 98 94 94 94 94 95 94 92 88 91 92
78 80 80 93 98 99 100 100 98 99 94 90 96 95 98 96 92 96 91 85 82 90 91 95 96 94 98 99 95 94 91 90 93 98 98 97 100 98 98 94 97 98 97 93 92 92 92 94 95 94 92 90 91 95
81 74 64 82 98 99 99 92 86 83 90 89 96 87 97 91 94 95 96 86 92 98 100 99 97 95 85 94 94 90 90 88 94 94 93 99 99 98 98 98 98 96 91 90 92 93 93 96 97 95 96 97 99 100
75 92 99 95 98 100 100 83 81 86 89 95 90 86 96 96 98 91 90 92 99 92 99 99 99 98 99 99 100 92 90 91 97 98 98 94 96 96 97 98 94 94 93 94 92 94 96 96 98 99 100 100 96 92
91 97 99 98 99 98 90 79 78 83 95 95 93 97 99 99 86 80 96 96 99 99 98 97 93 99 98 100 99 97 94 93 95 94 92 92 92 91 91 92 90 91 93 96 96 98 100 100 100 100 100 100 94 92
97 98 99 96 97 98 95 85 77 85 97 98 97 97 98 97 99 89 98 99 99 99 98 94 97 98 99 98 96 94 90 89 92 93 90 90 92 96 96 97 94 94 96 99 98 99 100 100 95 95 95 96 98 100
98 97 97 95 88 92 92 88 87 85 98 98 95 96 87 84 97 95 98 100 99 99 99 99 98 97 96 98 96 95 86 87 89 94 92 91 94 95 97 99 100 100 88 91 98 98 99 95 93 94 91 88 93 97
96 82 83 87 92 82 88 91 88 90 92 96 95 83 88 90 92 99 99 94 99 98 98 95 96 96 96 90 95 96 98 90 89 93 99 92 88 87 92 93 95 98 80 81 87 91 93 92 94 94 93 83 87 96
94 83 83 77 71 70 84 83 78 82 89 97 95 89 85 96 100 99 98 99 99 100 96 87 88 91 96 98 100 99 92 89 93 98 99 94 88 86 86 94 99 100 75 71 77 78 86 91 94 95 94 82 79 86
79 82 76 82 83 80 85 86 82 80 85 84 83 97 97 95 98 98 98 100 98 100 100 99 98 97 99 100 100 100 100 98 98 95 90 94 91 86 86 90 93 84 75 62 53 56 63 75 86 91 92 90 90 88
90 89 81 95 91 95 94 97 100 97 94 89 95 91 100 98 98 98 99 100 98 94 95 96 98 99 100 98 96 97 96 92 86 93 95 96 99 98 96 90 88 82 75 67 62 60 65 69 72 80 85 89 93 92
86 87 87 95 97 100 99 99 90 100 89 91 86 84 93 96 97 99 99 99 96 95 96 94 98 95 96 92 96 98 84 76 74 79 90 95 94 95 85 78 76 76 71 72 85 98 94 89 88 88 90 88 86 86
88 85 90 96 100 98 94 92 87 91 94 91 93 93 98 97 97 97 97 98 99 98 95 95 96 95 96 96 96 97 100 84 72 71 69 69 62 61 59 60 66 69 71 79 81 79 85 89 90 92 92 92 90 87
90 88 95 98 97 98 94 96 96 95 98 97 98 98 93 95 97 96 95 98 98 96 95 94 95 100 89 85 85 83 84 93 89 86 73 68 62 53 60 70 70 68 72 80 86 90 82 86 88 88 91 93 92 87
91 93 93 98 98 94 92 89 97 96 97 95 98 98 99 96 96 97 96 98 96 96 99 98 97 98 92 86 87 94 91 90 88 83 80 76 79 85 87 85 78 72 72 78 81 77 75 76 82 85 87 87 84 71

GFSWCAN_925_rhum_255.txt.gz
RH
78 78 86 90 100 98 97 92 92 90 85 81 79 78 79 73 70 96 95 90 91 97 84 73 71 77 75 87 93 77 84 85 95 96 96 93 99 87 82 61 66 78 95 94 85 91 88 44 45 60 42 37 40 48
76 80 77 88 89 94 100 100 98 95 93 86 81 82 76 71 70 77 96 87 90 89 85 83 83 65 64 61 73 80 84 79 88 97 98 94 98 96 88 90 61 85 66 68 76 70 52 45 44 47 50 52 50 53
73 74 75 77 83 90 94 99 99 100 96 89 77 72 70 68 80 80 93 90 99 98 90 95 96 88 82 74 66 95 96 71 81 75 93 94 96 96 94 80 73 66 54 71 65 49 44 40 39 38 37 41 38 38
66 67 66 64 71 81 91 98 94 99 98 97 86 80 72 64 83 90 99 97 99 95 99 87 70 93 77 82 84 78 79 72 73 84 99 99 96 87 91 73 81 64 62 70 69 57 51 49 45 42 40 39 41 39
62 60 62 64 64 73 80 87 91 95 97 95 87 91 88 76 89 91 90 98 100 94 98 97 90 82 73 77 85 85 83 86 96 99 99 97 97 90 85 79 84 62 70 80 75 52 58 52 46 45 49 48 47 53
64 59 58 75 69 73 72 80 82 88 85 81 85 83 92 90 79 99 99 73 92 100 99 98 86 87 73 86 92 87 85 89 96 100 99 98 90 99 99 95 57 51 51 53 64 57 59 52 49 48 54 52 48 48
63 61 60 76 66 62 72 76 84 77 68 84 89 92 90 83 86 90 92 89 100 100 100 99 99 89 90 94 96 96 91 96 96 100 98 97 98 98 99 94 59 53 52 50 49 56 64 55 59 50 54 52 53 52
66 63 59 63 75 71 70 71 81 91 96 96 95 91 84 74 89 98 82 62 74 99 99 100 99 93 89 100 100 100 100 100 100 99 99 99 99 100 98 73 62 61 63 64 60 58 59 54 54 54 52 52 54 54
72 67 62 59 70 66 65 64 79 86 96 99 100 93 88 96 94 81 75 81 100 97 100 100 92 98 91 100 99 99 99 99 99 99 98 97 98 97 81 80 77 68 70 65 71 78 76 77 73 71 68 65 67 64
71 66 65 60 62 62 64 69 82 86 93 98 98 93 99 98 100 100 100 100 100 100 99 99 91 96 93 99 100 96 99 97 99 96 95 99 83 67 71 67 70 76 82 92 96 91 86 85 84 85 88 83 78 72
70 64 63 61 63 63 64 72 85 83 84 92 99 98 98 98 100 100 100 99 99 99 98 91 90 95 92 95 98 91 95 94 97 86 91 91 96 82 74 82 84 87 87 82 81 86 80 79 87 92 92 88 89 91
68 66 62 59 56 61 62 76 82 95 100 100 99 100 99 100 100 99 98 99 99 91 97 98 96 92 96 89 94 98 90 97 92 92 98 98 92 87 88 84 84 76 73 77 78 85 92 94 96 98 99 99 98 98
60 59 57 56 63 64 61 73 88 97 98 94 100 99 100 97 98 97 97 97 90 96 98 98 99 98 98 96 97 97 100 95 90 99 94 93 84 77 86 77 76 72 72 78 86 87 86 94 98 98 97 99 98 97
62 62 64 58 58 64 60 67 96 90 99 99 98 97 98 97 96 95 88 88 86 94 97 93 98 94 100 99 98 97 92 89 97 98 92 89 81 78 73 79 76 78 84 94 92 95 97 97 97 97 98 98 96 96
67 68 69 70 71 66 61 71 96 97 99 99 100 97 98 86 89 87 86 90 92 91 85 95 96 97 99 98 94 93 98 98 93 90 94 92 79 76 86 87 87 92 96 97 98 97 97 97 96 96 97 98 97 96
66 62 63 65 65 64 64 77 96 98 96 99 99 99 94 99 97 98 97 97 93 92 85 88 97 98 98 96 98 93 92 92 85 98 92 82 83 88 90 92 97 97 98 96 95 97 97 96 96 96 96 96 96 95
66 64 64 66 62 66 70 98 99 100 89 99 90 93 94 99 98 98 92 93 90 82 98 95 99 86 98 98 96 90 93 96 97 95 93 90 90 94 92 98 98 95 95 95 96 97 97 97 91 89 94 96 96 97
62 62 65 64 78 85 95 97 98 95 90 90 95 96 98 94 97 97 96 90 97 99 98 96 83 93 96 87 95 98 99 99 96 95 97 93 93 95 82 95 96 94 94 95 97 98 95 89 89 92 92 92 93 94
66 64 67 77 89 95 98 98 98 96 97 86 97 98 94 98 96 88 86 85 86 85 86 84 82 92 90 98 98 96 97 96 97 95 98 98 95 98 99 99 98 95 94 96 94 93 94 94 94 93 92 90 93 94
67 72 77 84 90 98 98 90 93 98 98 93 98 99 97 99 94 95 94 91 96 98 96 94 95 97 98 91 90 93 92 94 97 96 98 97 100 98 99 98 97 98 93 92 92 90 91 92 95 97 97 96 94 97
74 78 85 96 98 98 98 98 98 98 96 93 97 94 99 99 99 99 100 89 98 98 98 98 98 96 91 95 94 91 94 89 93 93 91 98 99 97 98 99 98 97 91 89 89 92 92 95 98 100 100 100 100 100
82 86 87 86 97 97 97 98 94 92 93 96 92 90 98 99 99 98 94 93 98 94 96 99 99 96 91 98 96 85 84 90 99 98 99 97 96 97 97 98 93 94 93 92 90 93 96 100 100 96 93 94 89 87
79 81 94 98 98 98 95 98 87 88 96 96 94 97 98 98 97 83 97 95 92 93 97 98 98 97 97 100 98 96 92 90 95 96 96 96 98 98 98 98 93 93 94 97 97 98 99 100 93 84 73 70 73 81
75 97 98 95 95 95 99 97 89 96 98 98 96 98 99 99 98 92 97 92 94 99 97 99 97 98 99 98 98 98 95 93 95 96 93 92 93 97 97 99 98 96 96 96 98 100 100 96 83 76 70 74 81 92
97 91 98 97 96 97 96 92 92 89 99 98 96 98 98 99 97 96 94 89 98 98 98 98 98 97 96 98 97 98 96 91 91 94 93 93 97 98 97 99 100 98 92 92 100 96 95 86 80 77 76 78 88 96
96 96 93 88 94 95 86 92 91 96 96 96 94 96 92 92 94 98 90 90 94 97 97 97 96 96 96 90 96 96 98 91 91 94 99 94 92 93 95 96 97 97 87 78 87 90 90 82 74 74 82 83 80 80
96 92 83 78 76 77 90 88 79 86 94 96 97 90 88 98 100 96 99 98 98 99 92 89 86 90 95 99 100 99 93 90 92 99 98 90 89 87 83 90 99 94 88 81 80 80 82 78 72 74 85 88 81 75
86 78 84 87 93 82 86 89 84 81 92 87 85 98 96 90 97 98 99 100 100 100 99 97 95 98 100 100 100 96 96 95 97 91 89 92 90 86 82 80 82 83 84 80 74 69 64 64 67 70 78 88 91 88
94 92 79 97 94 95 88 89 97 97 94 84 94 99 100 96 98 98 100 100 98 96 96 96 98 98 100 99 97 92 96 93 89 94 99 100 100 100 100 90 79 68 60 62 72 68 65 66 70 70 80 84 84 79
88 87 91 99 99 100 98 96 98 100 91 90 89 90 92 96 97 100 100 100 96 94 95 94 99 96 96 94 98 99 94 88 79 79 91 97 93 98 94 84 75 63 54 52 66 89 75 72 80 84 88 89 82 81
87 89 94 96 98 98 91 94 96 94 95 95 96 97 97 97 97 97 96 99 100 99 97 98 98 95 94 96 94 96 96 80 74 71 67 73 84 92 92 85 73 63 54 55 67 72 74 78 80 83 83 82 81 77
92 95 95 97 97 97 96 97 99 98 98 96 97 98 95 95 98 96 96 98 98 96 96 95 96 100 94 89 87 81 76 75 74 68 70 73 83 79 72 65 58 50 52 61 67 74 72 74 78 78 80 81 78 73
94 94 96 98 98 94 93 91 98 96 97 97 97 99 100 96 96 96 96 97 97 96 98 97 96 94 89 85 83 81 83 82 79 74 62 55 44 48 55 57 59 62 62 63 69 74 74 75 78 79 79 76 69 54

GFSWCAN_925_rhum_258.txt.gz
RH
78 82 89 81 96 100 97 82 77 87 88 85 86 78 75 75 79 84 87 83 74 100 88 74 70 76 79 86 94 88 86 82 96 98 97 95 96 85 80 65 63 82 98 95 91 95 87 46 50 61 51 43 44 44
80 78 86 91 92 99 100 99 91 96 97 95 94 84 78 79 81 88 87 96 93 85 90 70 63 62 62 57 78 80 82 81 86 97 98 96 98 98 90 98 59 85 68 81 80 76 56 46 49 45 49 46 49 48
78 79 78 79 90 98 98 100 100 100 97 96 95 94 89 85 68 86 88 86 94 88 86 87 83 57 70 69 61 84 95 72 78 85 98 98 98 93 98 91 81 66 60 73 69 50 48 44 41 42 40 44 43 44
70 69 67 65 73 82 95 99 99 99 100 98 94 92 77 77 66 88 97 90 78 81 98 85 62 80 69 75 79 68 75 75 78 91 99 98 98 84 93 74 80 66 61 65 67 58 52 50 48 48 49 48 49 46
64 65 64 66 64 74 80 89 99 99 99 100 100 91 82 77 67 77 100 99 92 79 94 96 68 53 76 83 91 84 79 88 96 99 99 98 95 90 90 92 84 64 64 73 72 51 56 55 49 50 58 58 55 54
67 64 59 65 72 74 75 82 84 91 90 96 96 84 93 98 100 82 97 64 65 95 94 98 78 85 68 86 92 94 90 91 98 99 98 98 91 99 99 95 53 49 48 50 59 50 54 53 54 53 60 60 55 56
68 65 60 72 70 64 70 73 79 84 87 69 69 72 78 81 100 82 83 99 96 100 100 99 98 91 91 95 96 95 92 98 98 100 99 98 98 98 99 89 55 54 57 57 55 62 65 56 61 56 59 58 59 58
74 65 62 64 67 71 70 72 72 84 88 68 74 87 89 86 97 99 72 43 81 89 98 99 98 96 93 100 100 98 100 100 100 100 100 99 98 98 98 72 72 69 72 72 72 73 75 73 75 73 69 71 76 75
73 67 65 61 68 74 66 66 65 79 87 89 93 99 95 98 100 73 66 54 78 71 99 99 98 98 89 100 99 100 99 98 99 99 99 99 98 97 87 82 80 77 90 95 88 87 84 84 82 81 79 77 78 79
74 76 69 64 62 63 62 65 69 82 89 94 96 99 100 98 95 91 97 97 99 99 98 99 92 98 94 99 100 99 99 99 98 96 97 99 94 73 69 77 93 96 90 87 84 85 82 85 86 79 79 86 94 94
78 76 72 64 61 63 66 66 74 89 76 88 100 99 86 92 98 100 100 99 99 99 99 96 91 97 93 96 98 89 96 96 98 88 90 89 98 84 91 90 87 84 81 76 72 72 79 90 96 96 96 96 96 96
78 75 66 61 62 58 59 63 77 88 97 97 99 99 99 99 99 99 98 98 99 93 97 98 96 91 98 90 97 99 92 96 88 92 98 97 93 92 90 82 76 72 72 74 75 83 87 94 98 98 95 95 96 97
73 73 70 66 61 56 65 61 81 94 88 97 99 97 100 98 98 98 96 98 96 98 98 98 98 98 99 96 97 98 99 94 90 98 86 92 81 72 73 73 76 68 73 82 77 90 94 93 94 96 96 97 97 96
74 67 59 58 56 66 66 63 72 80 96 100 98 98 97 97 96 92 90 87 86 94 98 88 99 97 100 99 99 98 93 91 97 98 94 88 85 75 75 83 77 83 91 94 91 92 94 96 96 96 97 97 94 95
75 69 62 62 60 58 72 65 80 89 98 99 99 91 97 87 88 86 88 90 90 93 91 96 98 96 99 98 94 93 99 90 95 90 94 91 77 84 90 89 85 88 92 96 95 95 96 96 95 95 97 97 96 96
75 68 66 66 69 70 73 70 92 93 97 97 96 97 87 97 88 98 98 97 95 93 86 89 99 98 98 94 97 92 95 94 85 97 95 80 86 91 89 93 92 91 94 95 96 94 94 94 95 96 96 96 97 96
73 70 66 66 67 65 65 85 93 99 99 89 85 84 97 95 96 97 92 94 91 87 99 99 98 87 96 99 95 91 94 93 97 96 94 88 91 95 96 95 89 90 97 97 95 94 93 90 89 88 92 96 95 97
74 69 66 66 68 70 91 91 97 97 93 77 88 94 80 82 98 98 96 94 92 99 94 94 87 99 97 88 94 97 98 97 94 95 96 93 93 89 87 93 95 95 97 98 95 93 90 88 89 93 90 91 93 95
70 66 65 66 76 74 96 96 93 96 81 90 91 98 94 95 97 93 93 92 94 97 99 98 97 97 93 96 94 98 93 89 96 98 98 96 97 98 98 98 99 98 98 96 92 93 95 96 95 95 94 94 97 98
66 62 64 74 81 88 96 97 96 98 96 93 98 98 96 97 94 98 98 97 98 99 99 98 96 94 94 96 92 95 96 90 94 97 98 99 99 97 98 98 97 98 94 92 92 90 91 95 98 99 99 99 99 100
72 68 68 89 96 97 97 94 97 93 85 94 98 92 96 99 99 99 99 99 99 98 98 97 97 96 92 94 93 90 95 91 84 85 94 98 98 97 98 99 98 96 91 91 91 95 96 99 100 100 99 100 98 93
86 68 92 97 97 97 97 84 97 93 99 97 98 96 92 98 98 99 96 97 98 97 97 97 95 94 98 98 95 89 85 86 91 97 94 98 96 96 97 98 96 93 92 92 92 96 99 100 96 93 91 90 78 75
74 92 90 97 98 98 86 94 99 97 98 98 98 98 98 99 98 91 98 94 93 92 95 98 94 90 98 98 91 94 91 90 92 96 98 99 99 99 98 99 93 93 94 98 98 100 100 91 85 79 72 70 71 75
64 85 96 93 93 94 93 99 98 98 99 98 97 97 99 99 97 93 92 89 87 98 96 97 95 98 98 98 96 98 97 92 97 99 98 95 95 97 98 99 96 94 95 99 100 100 88 73 60 56 61 66 71 80
92 88 96 96 94 100 98 96 97 94 97 97 97 98 99 98 97 98 92 92 98 95 98 98 95 93 97 98 98 99 95 92 90 96 97 90 97 98 99 100 100 100 95 93 97 87 80 66 58 62 68 69 80 89
96 85 96 90 95 92 91 96 96 99 97 98 94 99 97 94 96 96 92 90 92 90 94 94 96 96 97 91 96 97 99 92 91 94 100 97 95 93 95 96 97 100 92 76 81 82 76 67 65 69 78 82 82 84
96 95 93 87 83 88 95 93 80 90 97 97 98 92 89 93 97 93 99 99 99 95 93 91 86 86 96 99 100 100 97 94 90 96 99 95 93 93 89 91 95 91 87 77 71 66 65 64 67 68 75 82 76 66
85 95 96 93 92 80 93 92 86 84 93 89 82 93 78 82 90 97 99 100 99 92 96 93 87 84 97 100 99 97 96 92 96 94 93 94 92 87 83 79 80 84 85 82 76 70 59 49 56 64 66 66 70 75
96 92 81 100 97 96 92 95 96 97 94 82 96 100 97 93 96 96 100 100 97 97 99 99 100 100 100 100 99 92 95 94 92 96 100 100 100 100 92 85 86 85 85 81 75 62 50 48 52 60 65 68 76 78
91 80 95 100 98 96 97 97 98 100 92 94 93 91 93 95 97 99 99 100 96 96 96 96 100 95 96 94 98 98 98 91 84 81 92 98 92 93 86 77 72 69 67 64 69 78 66 63 72 74 73 77 76 74
89 92 96 97 98 98 96 96 97 94 95 95 98 96 97 97 97 96 96 99 97 97 99 99 98 96 95 98 95 97 98 89 81 74 63 71 80 89 84 76 64 54 52 51 60 66 69 73 74 77 81 81 78 72
94 99 97 99 98 97 96 100 99 100 100 98 97 98 95 94 95 95 96 97 98 97 96 95 95 97 92 89 87 83 80 81 76 70 66 75 85 88 84 73 60 52 48 51 58 64 66 69 76 76 75 76 74 68
96 96 98 100 98 96 95 92 96 97 98 98 97 99 100 97 94 96 96 98 96 95 97 95 94 93 89 86 82 77 76 72 68 66 71 78 80 84 80 69 59 51 51 56 60 64 68 68 70 71 71 69 66 54